[[{"header":{"parameterUnit":"m.s-1","parameterCategory":2,"la1":30.2991,"la2":30.254,"lo1":-89.0895,"lo2":-89.0444,"dy":0.0017,"dx":0.0017,"nx":28,"ny":28,"refTime":"2024-08-11T03:00:00:Z","depth":"0","parameterNumber":2,"parameterNumberName":"U-component_of_CURRENTS"},"data":[0,0,0,0,0,0,0,0,0,0,0,0,0,0,0,0,0,0,0,0,0,0,0,0,0,0,0,0,0,0,0,0,0,0,0,0,0,0,0,0,0,0,0,0,0,0,0,0,0,0,0,0,0,0,0,0,0,0,-0.2801,-0.2801,0,-0.2825,-0.2825,-0.2825,-0.2843,-0.2844,-0.2844,-0.2844,-0.2793,-0.2791,-0.279,0,0,0,0,0,0,0,0,0,0,0,0,0,-0.2736,-0.2737,-0.2801,-0.2801,-0.2802,-0.2825,-0.2825,-0.2825,-0.2843,-0.2844,-0.2844,-0.2845,-0.2794,-0.2792,-0.279,0,0,0,0,0,0,0,0,0,0,0,0,0,-0.276,-0.2737,-0.2801,-0.2816,-0.2818,-0.2824,-0.2825,-0.2825,-0.2843,-0.2844,-0.2844,-0.2845,-0.2794,-0.2792,-0.2789,-0.2759,0,0,-0.2781,-0.278,0,0,0,0,0,0,0,0,-0.2758,-0.2762,-0.2813,-0.2815,-0.2817,-0.2834,-0.2783,-0.28,-0.2843,-0.283,-0.2845,-0.2845,-0.2801,-0.2798,-0.2798,-0.2757,-0.2755,-0.2781,-0.2779,-0.2778,-0.2777,0,0,0,0,0,0,0,-0.2757,-0.2761,-0.2807,-0.2814,-0.2816,-0.281,-0.2814,-0.2786,-0.2808,-0.2831,-0.2834,-0.2841,-0.2802,-0.2801,-0.2797,-0.2754,-0.2781,-0.2779,-0.2777,-0.2776,-0.2677,-0.2676,0,0,0,0,0,0,-0.2761,-0.2759,-0.2807,-0.2808,-0.2792,-0.2811,-0.2815,-0.2826,-0.281,-0.281,-0.284,-0.2842,-0.2805,-0.28,-0.2795,-0.2735,-0.2778,-0.2776,-0.2774,-0.2678,-0.2677,-0.2676,0,0,0,0,0,0,-0.276,-0.2765,-0.2806,-0.2786,-0.2791,-0.2812,-0.2823,-0.2826,-0.2829,-0.2818,-0.2816,-0.2842,-0.2805,-0.2799,-0.2774,-0.2734,-0.2774,-0.2772,-0.2679,-0.2677,-0.2676,-0.263,0,0,0,0,0,0,-0.2758,-0.2764,-0.2761,-0.2787,-0.2793,-0.2808,-0.2823,-0.2826,-0.2834,-0.2836,-0.2818,-0.2814,-0.2805,-0.2778,-0.2771,-0.2731,-0.277,-0.268,-0.2678,-0.2677,-0.2633,-0.2627,-0.2622,0,0,0,0,0,-0.2755,-0.275,-0.276,-0.2766,-0.2791,-0.2808,-0.281,-0.2825,-0.2833,-0.283,-0.2822,-0.2815,-0.2761,-0.2775,-0.2767,-0.2726,-0.2681,-0.2679,-0.2677,-0.2635,-0.2628,-0.2622,0,0,0,0,0,0,-0.2714,-0.2752,-0.2764,-0.2769,-0.2788,-0.2813,-0.2807,-0.2823,-0.2815,-0.2816,-0.2805,-0.28,-0.2759,-0.2755,-0.2771,-0.2693,-0.2718,-0.2714,-0.2688,-0.2682,-0.2676,-0.2647,-0.2768,0,0,0,0,0,-0.2705,-0.2712,-0.2749,-0.2748,-0.2759,-0.2783,-0.2788,-0.2806,-0.2811,-0.2809,-0.2798,-0.2777,-0.2742,-0.2725,-0.2701,-0.266,-0.2641,-0.2629,-0.2623,-0.2619,-0.259,-0.2537,-0.2523,-0.2668,-0.2668,-0.2668,0,0,-0.2684,-0.2708,-0.2708,-0.2739,-0.2752,-0.2752,-0.2786,-0.28,-0.2785,-0.2801,-0.2767,-0.2758,-0.2729,-0.2683,-0.2664,-0.2675,-0.2572,-0.2616,-0.2612,-0.2585,-0.2533,-0.2519,-0.2506,-0.2666,-0.2667,-0.2667,0,0,-0.2643,-0.2672,-0.2661,-0.2682,-0.2712,-0.2729,-0.2734,-0.2762,-0.2759,-0.274,-0.2736,-0.2705,-0.267,-0.2632,-0.2608,-0.2557,-0.2547,-0.2557,-0.2499,-0.2448,-0.2435,-0.2423,-0.2397,-0.2383,-0.2552,-0.2552,-0.2552,0,-0.2611,-0.2606,-0.2657,-0.2658,-0.2657,-0.2716,-0.2696,-0.2704,-0.2717,-0.2695,-0.2723,-0.2649,-0.2633,-0.2549,-0.2532,-0.2538,-0.2523,-0.2526,-0.2439,-0.2427,-0.2416,-0.2392,-0.2377,-0.2549,-0.255,-0.255,-0.255,0,-0.2558,-0.256,-0.2557,-0.2571,-0.2585,-0.258,-0.2612,-0.2613,-0.2622,-0.2622,-0.2565,-0.2554,-0.2505,-0.2497,-0.2494,-0.2401,-0.2422,-0.2441,-0.2453,-0.2398,-0.2377,-0.2363,-0.2546,-0.2547,-0.2547,-0.2548,0,0,-0.2445,-0.2504,-0.2496,-0.2489,-0.2536,-0.2534,-0.2523,-0.2505,-0.2477,-0.2487,-0.2429,-0.2377,-0.2388,-0.2361,-0.236,-0.2315,-0.2233,-0.2341,-0.2339,-0.231,-0.2135,-0.2242,-0.2237,-0.2241,-0.2238,-0.2236,-0.2158,0,-0.2366,-0.2345,-0.2398,-0.2359,-0.2342,-0.2404,-0.2383,-0.2388,-0.2394,-0.2364,-0.2349,-0.2302,-0.2332,-0.231,-0.2267,-0.2249,-0.219,-0.2253,-0.2195,-0.2193,-0.2291,-0.2222,-0.2205,-0.2142,-0.2144,-0.2142,-0.214,0,-0.2261,-0.2266,-0.2222,-0.2243,-0.224,-0.2231,-0.2207,-0.2205,-0.2202,-0.2209,-0.2185,-0.2199,-0.2137,-0.2177,-0.2096,-0.2141,-0.2113,-0.2103,-0.2101,-0.2199,-0.2273,-0.2193,-0.2116,-0.1963,-0.2118,-0.212,-0.2121,0,-0.2108,-0.2124,-0.2078,-0.2086,-0.213,-0.2107,-0.2121,-0.2133,-0.2128,-0.2108,-0.2109,-0.2065,-0.2051,-0.2006,-0.2033,-0.2042,-0.1968,-0.1978,-0.2038,-0.2046,-0.2016,-0.2029,-0.1775,-0.1873,-0.1873,-0.1873,-0.1874,0,-0.1977,-0.1937,-0.2004,-0.1976,-0.1929,-0.1993,-0.1944,-0.1968,-0.1987,-0.1986,-0.2015,-0.2019,-0.2006,-0.2003,-0.1993,-0.2003,-0.1935,-0.2,-0.2019,-0.2007,-0.2019,-0.1877,-0.1841,-0.187,-0.1871,-0.1872,-0.1872,0,-0.1817,-0.1853,-0.1816,-0.1851,-0.1859,-0.1824,-0.1874,-0.1859,-0.1889,-0.1894,-0.189,-0.1953,-0.197,-0.1984,-0.1937,-0.1969,-0.1912,-0.1963,-0.1979,-0.2002,-0.1933,-0.1899,-0.18,-0.1756,-0.1983,-0.1985,-0.1987,0,-0.1735,-0.1696,-0.1726,-0.172,-0.1735,-0.172,-0.1732,-0.179,-0.1806,-0.1876,-0.1882,-0.1915,-0.1973,-0.1995,-0.2047,-0.205,-0.1945,-0.2017,-0.2018,-0.1899,-0.1871,-0.1901,-0.187,-0.1951,-0.1953,-0.1954,-0.1954,0,-0.1591,-0.1605,-0.1595,-0.1598,-0.16,-0.1617,-0.1644,-0.1651,-0.1741,-0.1778,-0.1858,-0.1909,-0.2004,-0.2072,-0.2126,-0.2105,-0.1952,-0.2043,-0.1868,-0.178,-0.1837,-0.1815,-0.2053,-0.1963,-0.1963,-0.1962,-0.1961,-0.1961,-0.1498,-0.1471,-0.148,-0.1473,-0.1492,-0.1522,-0.1508,-0.1589,-0.1637,-0.1727,-0.1828,-0.1931,-0.2037,-0.215,-0.2132,-0.2029,-0.2046,-0.1906,-0.1861,-0.1891,-0.1878,-0.2177,-0.2162,-0.2162,-0.2162,-0.2162,-0.2162,0,-0.1405,-0.1387,-0.1369,-0.1374,-0.1379,-0.142,-0.1461,-0.1468,-0.1534,-0.1694,-0.1793,-0.1968,-0.2004,-0.2022,-0.1991,-0.1852,-0.1811,-0.1691,-0.1618,-0.1584,-0.1762,-0.1787,-0.1752,-0.1752,-0.1752,-0.1752,-0.1752,-0.1752,-0.1352,-0.1306,-0.1301,-0.1268,-0.1278,-0.1267,-0.1278,-0.1325,-0.1418,-0.1581,-0.174,-0.1883,-0.181,-0.1809,-0.1597,-0.1527,-0.1374,-0.1399,-0.1324,-0.1316,-0.1328,-0.134,-0.1346,-0.1218,-0.1218,-0.1136,-0.1134,-0.1133]},{"header":{"parameterUnit":"m.s-1","parameterCategory":2,"la1":30.2991,"la2":30.254,"lo1":-89.0895,"lo2":-89.0444,"dy":0.0017,"dx":0.0017,"nx":28,"ny":28,"refTime":"2024-08-11T03:00:00:Z","depth":"0","parameterNumber":3,"parameterNumberName":"V-component_of_CURRENTS"},"data":[0,0,0,0,0,0,0,0,0,0,0,0,0,0,0,0,0,0,0,0,0,0,0,0,0,0,0,0,0,0,0,0,0,0,0,0,0,0,0,0,0,0,0,0,0,0,0,0,0,0,0,0,0,0,0,0,0,0,-0.0917,-0.0917,0,-0.0895,-0.0895,-0.0894,-0.0934,-0.0935,-0.0937,-0.0938,-0.0834,-0.083,-0.0826,0,0,0,0,0,0,0,0,0,0,0,0,0,-0.0925,-0.0925,-0.0917,-0.0917,-0.0917,-0.0895,-0.0895,-0.0894,-0.0933,-0.0935,-0.0937,-0.0939,-0.0836,-0.0831,-0.0826,0,0,0,0,0,0,0,0,0,0,0,0,0,-0.0913,-0.0925,-0.0917,-0.0935,-0.0937,-0.0895,-0.0895,-0.0894,-0.0933,-0.0935,-0.0938,-0.094,-0.0837,-0.0831,-0.0825,-0.0743,0,0,-0.0806,-0.0804,0,0,0,0,0,0,0,0,-0.0913,-0.0912,-0.0933,-0.0934,-0.0935,-0.0921,-0.0859,-0.084,-0.0933,-0.0933,-0.0938,-0.0941,-0.0855,-0.0847,-0.0838,-0.0738,-0.0734,-0.0806,-0.0802,-0.0799,-0.0798,0,0,0,0,0,0,0,-0.0914,-0.0913,-0.0907,-0.0932,-0.0934,-0.0921,-0.0922,-0.0856,-0.0879,-0.0933,-0.0936,-0.0935,-0.0855,-0.0843,-0.0835,-0.0732,-0.0806,-0.08,-0.0797,-0.0794,-0.0561,-0.0558,0,0,0,0,0,0,-0.0921,-0.0914,-0.0908,-0.0906,-0.0931,-0.0919,-0.092,-0.0922,-0.0882,-0.0879,-0.0933,-0.0937,-0.0853,-0.0842,-0.0831,-0.0752,-0.0799,-0.0794,-0.079,-0.0563,-0.056,-0.0558,0,0,0,0,0,0,-0.0921,-0.0921,-0.0909,-0.0911,-0.0909,-0.0917,-0.0918,-0.092,-0.0914,-0.0883,-0.0879,-0.0926,-0.0854,-0.084,-0.0778,-0.0747,-0.0791,-0.0785,-0.0566,-0.0562,-0.0559,-0.0579,0,0,0,0,0,0,-0.0921,-0.0921,-0.0916,-0.0911,-0.0909,-0.0879,-0.0916,-0.0918,-0.0911,-0.0915,-0.0874,-0.0868,-0.0855,-0.0787,-0.0772,-0.074,-0.078,-0.0569,-0.0565,-0.056,-0.0581,-0.0576,-0.0572,0,0,0,0,0,-0.0922,-0.0904,-0.0916,-0.0915,-0.0905,-0.0878,-0.0874,-0.0887,-0.0908,-0.0891,-0.0874,-0.0869,-0.0746,-0.078,-0.0763,-0.0728,-0.0572,-0.0566,-0.056,-0.0583,-0.0577,-0.0572,0,0,0,0,0,0,-0.0897,-0.0907,-0.0919,-0.0905,-0.0892,-0.0885,-0.0868,-0.0878,-0.085,-0.0855,-0.0838,-0.0827,-0.0757,-0.0728,-0.0766,-0.0643,-0.0656,-0.0647,-0.0679,-0.0673,-0.0668,-0.0678,-0.0775,0,0,0,0,0,-0.089,-0.0887,-0.0886,-0.0871,-0.0865,-0.0864,-0.0854,-0.0861,-0.0842,-0.0835,-0.0808,-0.0767,-0.0714,-0.0688,-0.0632,-0.0562,-0.0558,-0.0524,-0.0519,-0.0516,-0.0508,-0.048,-0.0474,-0.0539,-0.0539,-0.0539,0,0,-0.0877,-0.088,-0.0879,-0.0866,-0.0859,-0.0839,-0.0863,-0.0841,-0.0826,-0.082,-0.0778,-0.0741,-0.0688,-0.0622,-0.0587,-0.06,-0.0496,-0.0509,-0.0507,-0.0501,-0.0474,-0.0468,-0.0463,-0.0535,-0.0536,-0.0537,0,0,-0.0847,-0.0849,-0.0839,-0.0825,-0.0813,-0.0809,-0.0802,-0.0788,-0.0784,-0.0733,-0.0728,-0.0675,-0.0596,-0.0562,-0.0533,-0.0455,-0.0467,-0.0435,-0.0427,-0.04,-0.0396,-0.0392,-0.04,-0.0397,-0.044,-0.044,-0.044,0,-0.0833,-0.0825,-0.0825,-0.0806,-0.0797,-0.0796,-0.0777,-0.0757,-0.0725,-0.0714,-0.0718,-0.0611,-0.0563,-0.0497,-0.0477,-0.0446,-0.0454,-0.0465,-0.04,-0.0395,-0.0391,-0.04,-0.0396,-0.0441,-0.0441,-0.0441,-0.0441,0,-0.0801,-0.0789,-0.0773,-0.0762,-0.0743,-0.0722,-0.0706,-0.0683,-0.0677,-0.0664,-0.0599,-0.0544,-0.0491,-0.0459,-0.0444,-0.0383,-0.0408,-0.0399,-0.043,-0.0387,-0.0398,-0.0393,-0.0441,-0.0441,-0.0441,-0.0441,0,0,-0.0801,-0.0764,-0.0762,-0.0756,-0.0725,-0.0712,-0.0673,-0.0646,-0.0637,-0.0587,-0.0567,-0.0466,-0.0458,-0.0422,-0.0396,-0.0367,-0.0343,-0.0377,-0.0376,-0.0414,-0.0322,-0.0381,-0.0382,-0.0343,-0.0342,-0.0341,-0.0352,0,-0.0785,-0.0756,-0.0737,-0.0705,-0.0693,-0.0674,-0.0643,-0.0616,-0.0594,-0.0566,-0.0511,-0.0468,-0.044,-0.0425,-0.0386,-0.0351,-0.0328,-0.0342,-0.0332,-0.0331,-0.0412,-0.0377,-0.034,-0.035,-0.0348,-0.0347,-0.0346,0,-0.0776,-0.0761,-0.0734,-0.0702,-0.0695,-0.0673,-0.0651,-0.062,-0.0574,-0.0557,-0.0512,-0.0483,-0.042,-0.0407,-0.0337,-0.0359,-0.0334,-0.0311,-0.0311,-0.0353,-0.0381,-0.0383,-0.0342,-0.0083,-0.034,-0.034,-0.0341,0,-0.0806,-0.0763,-0.075,-0.0737,-0.0695,-0.0684,-0.0662,-0.0623,-0.0614,-0.0561,-0.056,-0.0482,-0.0463,-0.0404,-0.0363,-0.0352,-0.0313,-0.0289,-0.0319,-0.0325,-0.0281,-0.0285,-0.0008,-0.0233,-0.0233,-0.0233,-0.0233,0,-0.0808,-0.0794,-0.0767,-0.076,-0.0752,-0.071,-0.07,-0.0669,-0.0638,-0.064,-0.0567,-0.057,-0.0463,-0.0438,-0.038,-0.0358,-0.0329,-0.0312,-0.0322,-0.0288,-0.0292,-0.0057,0.0041,-0.0234,-0.0233,-0.0233,-0.0233,0,-0.0829,-0.0809,-0.0798,-0.0769,-0.0766,-0.0762,-0.0742,-0.0741,-0.0701,-0.0707,-0.0698,-0.0641,-0.0617,-0.0539,-0.0459,-0.0404,-0.0256,-0.0358,-0.0348,-0.0356,-0.0137,-0.0045,0.0083,0.0169,-0.0373,-0.0374,-0.0376,0,-0.0825,-0.0825,-0.0823,-0.0836,-0.0824,-0.0817,-0.0824,-0.0783,-0.0794,-0.077,-0.0791,-0.0761,-0.0777,-0.0692,-0.0576,-0.0499,-0.0316,-0.0401,-0.0345,-0.011,-0.0012,0.0015,0.0083,-0.0297,-0.0297,-0.0298,-0.0298,0,-0.0822,-0.0834,-0.0831,-0.0874,-0.0892,-0.0905,-0.0913,-0.0938,-0.0909,-0.0932,-0.0966,-0.0974,-0.0891,-0.0789,-0.0672,-0.0595,-0.0231,-0.0409,-0.0131,0.0097,0.0116,0.0188,-0.0326,-0.0301,-0.0301,-0.03,-0.03,-0.03,-0.0822,-0.0839,-0.0864,-0.0901,-0.0936,-0.0991,-0.1016,-0.106,-0.1106,-0.1176,-0.1153,-0.1197,-0.0918,-0.0759,-0.0637,-0.0227,-0.0287,-0.0069,0.0024,0.0031,0.013,-0.0426,-0.0436,-0.0436,-0.0437,-0.0437,-0.0437,0,-0.0822,-0.0852,-0.0892,-0.0949,-0.101,-0.1013,-0.1075,-0.1121,-0.1219,-0.1329,-0.1399,-0.1178,-0.0907,-0.055,-0.0001,0.0239,0.0301,0.0392,0.054,0.059,0.0155,0.0183,0.0267,0.0267,0.0267,0.0267,0.0266,0.0266,-0.0823,-0.0865,-0.0898,-0.0999,-0.1047,-0.1122,-0.1162,-0.1253,-0.1335,-0.1411,-0.1371,-0.1324,-0.0596,0.024,0.0831,0.0855,0.1111,0.101,0.1139,0.0981,0.0949,0.0919,0.0978,0.1228,0.1229,0.1569,0.1573,0.1577]}],[{"header":{"parameterUnit":"m.s-1","parameterCategory":2,"la1":30.2991,"la2":30.254,"lo1":-89.0895,"lo2":-89.0444,"dy":0.0017,"dx":0.0017,"nx":28,"ny":28,"refTime":"2024-08-11T03:00:00:Z","depth":"2","parameterNumber":2,"parameterNumberName":"U-component_of_CURRENTS"},"data":[0,0,0,0,0,0,0,0,0,0,0,0,0,0,0,0,0,0,0,0,0,0,0,0,0,0,0,0,0,0,0,0,0,0,0,0,0,0,0,0,0,0,0,0,0,0,0,0,0,0,0,0,0,0,0,0,0,0,-0.2514,-0.2514,0,-0.2515,-0.2515,-0.2514,-0.2485,-0.2485,-0.2484,-0.2484,-0.2469,-0.2469,-0.2468,0,0,0,0,0,0,0,0,0,0,0,0,0,-0.2379,-0.2382,-0.2514,-0.2514,-0.2515,-0.2515,-0.2515,-0.2514,-0.2485,-0.2485,-0.2484,-0.2484,-0.2469,-0.2469,-0.2468,0,0,0,0,0,0,0,0,0,0,0,0,0,-0.241,-0.2383,-0.2514,-0.2504,-0.2503,-0.2515,-0.2515,-0.2514,-0.2485,-0.2485,-0.2484,-0.2484,-0.2469,-0.2469,-0.2468,-0.2477,0,0,-0.2468,-0.2468,0,0,0,0,0,0,0,0,-0.2409,-0.2415,-0.2505,-0.2505,-0.2504,-0.2504,-0.2462,-0.2503,-0.2485,-0.2487,-0.2484,-0.2483,-0.2483,-0.2481,-0.2475,-0.2476,-0.2476,-0.2468,-0.2468,-0.2468,-0.2468,0,0,0,0,0,0,0,-0.2407,-0.2414,-0.2509,-0.2506,-0.2505,-0.2464,-0.2468,-0.2469,-0.2483,-0.2486,-0.2486,-0.2494,-0.2482,-0.2476,-0.2475,-0.2475,-0.2468,-0.2468,-0.2468,-0.2468,-0.245,-0.245,0,0,0,0,0,0,-0.2424,-0.2413,-0.2509,-0.251,-0.246,-0.2467,-0.2472,-0.25,-0.2483,-0.2482,-0.2495,-0.2493,-0.2476,-0.2475,-0.2474,-0.2461,-0.2468,-0.2468,-0.2467,-0.2451,-0.245,-0.245,0,0,0,0,0,0,-0.2421,-0.2433,-0.2509,-0.2463,-0.2471,-0.2471,-0.2503,-0.2501,-0.2494,-0.2491,-0.2488,-0.2491,-0.2476,-0.2475,-0.2467,-0.2461,-0.2467,-0.2467,-0.2451,-0.2451,-0.245,-0.245,0,0,0,0,0,0,-0.2418,-0.2433,-0.2441,-0.2466,-0.2475,-0.2516,-0.2504,-0.2501,-0.2503,-0.25,-0.2487,-0.2484,-0.2475,-0.2468,-0.2467,-0.2461,-0.2467,-0.2452,-0.2451,-0.245,-0.245,-0.2449,-0.2448,0,0,0,0,0,-0.2413,-0.243,-0.2442,-0.2453,-0.2494,-0.2517,-0.2516,-0.251,-0.2503,-0.25,-0.2487,-0.2485,-0.2463,-0.2467,-0.2467,-0.2461,-0.2452,-0.2451,-0.245,-0.245,-0.2449,-0.2448,0,0,0,0,0,0,-0.2376,-0.243,-0.2443,-0.2477,-0.2497,-0.2513,-0.2511,-0.2512,-0.25,-0.2496,-0.2485,-0.2482,-0.2473,-0.2468,-0.2473,-0.2453,-0.2456,-0.2455,-0.2456,-0.2455,-0.2454,-0.2438,-0.2467,0,0,0,0,0,-0.2377,-0.2397,-0.2447,-0.2466,-0.2486,-0.2499,-0.2503,-0.2507,-0.251,-0.2503,-0.2501,-0.2488,-0.247,-0.2463,-0.2457,-0.2449,-0.2415,-0.2443,-0.2442,-0.2442,-0.2427,-0.2382,-0.2375,-0.2447,-0.2447,-0.2447,0,0,-0.2367,-0.2397,-0.2409,-0.2457,-0.2474,-0.249,-0.2498,-0.2515,-0.2511,-0.2505,-0.2497,-0.2492,-0.2469,-0.2456,-0.2451,-0.245,-0.24,-0.244,-0.244,-0.2426,-0.238,-0.2373,-0.2367,-0.2447,-0.2447,-0.2447,0,0,-0.2344,-0.2393,-0.2397,-0.2424,-0.2459,-0.2477,-0.2486,-0.2518,-0.2515,-0.2512,-0.2502,-0.2488,-0.2477,-0.2454,-0.2438,-0.2428,-0.2401,-0.2434,-0.2412,-0.2368,-0.2362,-0.2356,-0.2288,-0.2276,-0.2429,-0.2429,-0.2429,0,-0.232,-0.235,-0.2397,-0.2411,-0.243,-0.2473,-0.2484,-0.249,-0.2508,-0.2508,-0.2507,-0.2478,-0.2465,-0.243,-0.2419,-0.2425,-0.2389,-0.2419,-0.2366,-0.2359,-0.2353,-0.2285,-0.2272,-0.2428,-0.2428,-0.2428,-0.2428,0,-0.2302,-0.2329,-0.2339,-0.2374,-0.24,-0.2421,-0.2461,-0.2479,-0.2488,-0.2491,-0.2477,-0.2458,-0.2433,-0.2432,-0.2415,-0.2371,-0.2356,-0.2375,-0.2368,-0.2346,-0.2276,-0.2262,-0.2428,-0.2428,-0.2428,-0.2428,0,0,-0.2225,-0.2309,-0.2306,-0.233,-0.239,-0.2411,-0.2428,-0.2453,-0.2451,-0.2461,-0.244,-0.241,-0.241,-0.239,-0.2381,-0.2341,-0.2259,-0.2334,-0.2332,-0.2264,-0.214,-0.2196,-0.2185,-0.2273,-0.2271,-0.2269,-0.2103,0,-0.2187,-0.2217,-0.2263,-0.2285,-0.2316,-0.2377,-0.2386,-0.2414,-0.2428,-0.2424,-0.2409,-0.2384,-0.239,-0.2371,-0.2334,-0.2282,-0.2225,-0.2301,-0.2173,-0.2168,-0.222,-0.2173,-0.1934,-0.1773,-0.2089,-0.2087,-0.2085,0,-0.2126,-0.217,-0.2189,-0.2268,-0.2285,-0.2287,-0.2331,-0.2348,-0.2364,-0.2373,-0.2361,-0.2358,-0.23,-0.231,-0.2193,-0.2243,-0.2181,-0.214,-0.2134,-0.2176,-0.22,-0.185,-0.1736,-0.2061,-0.2063,-0.2065,-0.2066,0,-0.2035,-0.2104,-0.2122,-0.2149,-0.2239,-0.224,-0.2274,-0.231,-0.2327,-0.2325,-0.2326,-0.2285,-0.2241,-0.2177,-0.2121,-0.2137,-0.1996,-0.2008,-0.1993,-0.1995,-0.176,-0.1747,-0.1908,-0.1909,-0.1909,-0.1909,-0.191,0,-0.1972,-0.1978,-0.2075,-0.2086,-0.2102,-0.2177,-0.2176,-0.2214,-0.2242,-0.2243,-0.2276,-0.2252,-0.2206,-0.2149,-0.2091,-0.2005,-0.1966,-0.1966,-0.1956,-0.1756,-0.1745,-0.1982,-0.1993,-0.1903,-0.1905,-0.1906,-0.1907,0,-0.1851,-0.1918,-0.1942,-0.2032,-0.2054,-0.2053,-0.2124,-0.213,-0.2172,-0.2168,-0.2164,-0.2183,-0.2117,-0.2091,-0.1973,-0.1959,-0.188,-0.1862,-0.1635,-0.1605,-0.1899,-0.1912,-0.1785,-0.1786,-0.1786,-0.1787,-0.1787,0,-0.1794,-0.1792,-0.188,-0.1889,-0.1914,-0.1946,-0.197,-0.2061,-0.208,-0.212,-0.2105,-0.2077,-0.2043,-0.1937,-0.1836,-0.1733,-0.1858,-0.1558,-0.1569,-0.1883,-0.1886,-0.1898,-0.1909,-0.1216,-0.1212,-0.1209,-0.1206,0,-0.1681,-0.1695,-0.173,-0.1761,-0.178,-0.1829,-0.1869,-0.1898,-0.1994,-0.201,-0.2007,-0.198,-0.1856,-0.167,-0.1611,-0.1528,-0.1567,-0.1493,-0.1807,-0.1355,-0.1353,-0.1356,-0.1383,-0.1174,-0.1177,-0.118,-0.1181,-0.1182,-0.1572,-0.1565,-0.1601,-0.1616,-0.1649,-0.1685,-0.1704,-0.177,-0.1811,-0.1789,-0.1831,-0.1716,-0.1598,-0.1378,-0.1294,-0.1241,-0.1353,-0.131,-0.1316,-0.1326,-0.1361,-0.1369,-0.1193,-0.1196,-0.1199,-0.1201,-0.1203,0,-0.145,-0.1452,-0.146,-0.1494,-0.1492,-0.1543,-0.1616,-0.1608,-0.1631,-0.1598,-0.1546,-0.1279,-0.1127,-0.1085,-0.0908,-0.0905,-0.0814,-0.0925,-0.0789,-0.0818,-0.0845,-0.0854,-0.0551,-0.055,-0.0549,-0.0549,0,0,-0.1382,-0.1353,-0.1369,-0.1327,-0.1339,-0.133,-0.1357,-0.1348,-0.1335,-0.1225,-0.1132,-0.1035,-0.104,-0.0796,-0.0716,-0.0646,-0.0737,-0.0597,-0.11,-0.0966,-0.0994,-0.1025,-0.1069,0,0,0,0,0]},{"header":{"parameterUnit":"m.s-1","parameterCategory":2,"la1":30.2991,"la2":30.254,"lo1":-89.0895,"lo2":-89.0444,"dy":0.0017,"dx":0.0017,"nx":28,"ny":28,"refTime":"2024-08-11T03:00:00:Z","depth":"2","parameterNumber":3,"parameterNumberName":"V-component_of_CURRENTS"},"data":[0,0,0,0,0,0,0,0,0,0,0,0,0,0,0,0,0,0,0,0,0,0,0,0,0,0,0,0,0,0,0,0,0,0,0,0,0,0,0,0,0,0,0,0,0,0,0,0,0,0,0,0,0,0,0,0,0,0,0.0078,0.0079,0,0.0106,0.0106,0.0107,0.0119,0.0119,0.0118,0.0118,0.0173,0.0175,0.0177,0,0,0,0,0,0,0,0,0,0,0,0,0,0.0083,0.0083,0.0078,0.0079,0.0079,0.0106,0.0106,0.0107,0.0119,0.0119,0.0118,0.0118,0.0173,0.0175,0.0177,0,0,0,0,0,0,0,0,0,0,0,0,0,0.0094,0.0083,0.0078,0.0087,0.0088,0.0106,0.0106,0.0107,0.0119,0.0119,0.0118,0.0118,0.0172,0.0175,0.0177,0.0197,0,0,0.0184,0.0185,0,0,0,0,0,0,0,0,0.0093,0.0094,0.0086,0.0087,0.0088,0.0107,0.0128,0.0138,0.0119,0.0109,0.0118,0.0118,0.0153,0.0157,0.0164,0.0199,0.0202,0.0185,0.0186,0.0187,0.0188,0,0,0,0,0,0,0,0.0092,0.0093,0.0091,0.0086,0.0087,0.0105,0.0106,0.013,0.0133,0.0109,0.011,0.0111,0.0154,0.0162,0.0166,0.0202,0.0185,0.0187,0.0188,0.0189,0.0222,0.0222,0,0,0,0,0,0,0.0084,0.0092,0.009,0.0091,0.0088,0.0105,0.0106,0.0102,0.0133,0.0136,0.0111,0.0111,0.0158,0.0163,0.0168,0.0149,0.0187,0.0189,0.0191,0.0223,0.0222,0.0222,0,0,0,0,0,0,0.0084,0.0083,0.0089,0.0092,0.0093,0.0105,0.0101,0.0103,0.0074,0.0133,0.0138,0.0075,0.0158,0.0164,0.0154,0.0153,0.019,0.0193,0.0224,0.0223,0.0222,0.0139,0,0,0,0,0,0,0.0084,0.0083,0.0056,0.0091,0.0093,0.0069,0.0101,0.0104,0.0077,0.0076,0.0105,0.0112,0.0158,0.015,0.0156,0.0157,0.0195,0.0224,0.0223,0.0222,0.0143,0.0136,0.013,0,0,0,0,0,0.0084,0.0043,0.0055,0.0053,0.0062,0.0067,0.0069,0.0079,0.0074,0.0053,0.007,0.0109,0.0149,0.015,0.0158,0.016,0.0225,0.0224,0.0222,0.0146,0.0137,0.013,0,0,0,0,0,0,0.0016,0.0041,0.0055,0.0019,0.0032,0.0068,0.0037,0.005,0.0045,0.0034,0.0088,0.0096,0.0093,0.0129,0.0129,0.0167,0.0199,0.0199,0.0139,0.0131,0.0125,0.0143,0.0197,0,0,0,0,0,-0.0006,-0.003,0.0008,-0.003,-0.0027,-0.0002,-0.0008,0.0004,0.0016,0.0011,0.003,0.0061,0.0101,0.0112,0.0143,0.015,0.022,0.0161,0.0154,0.0149,0.0169,0.0285,0.0292,0.0217,0.0217,0.0218,0,0,-0.0049,-0.0037,-0.0056,-0.0046,-0.0039,-0.0035,-0.0008,-0.0031,-0.0027,0.002,-0.0003,0.0027,0.0094,0.011,0.0114,0.0135,0.0194,0.0147,0.0142,0.0166,0.0284,0.0292,0.0299,0.0217,0.0217,0.0217,0,0,-0.012,-0.0131,-0.0156,-0.0141,-0.013,-0.0107,-0.0123,-0.0106,-0.0102,-0.0105,-0.0062,-0.0034,-0.0006,0.0062,0.0102,0.0078,0.0151,0.0071,0.006,0.017,0.0178,0.0186,0.0236,0.0249,0.0074,0.0074,0.0074,0,-0.0166,-0.0182,-0.0168,-0.0169,-0.0165,-0.0143,-0.0153,-0.0139,-0.0131,-0.0111,-0.0126,-0.0039,-0.0006,0.0076,0.0061,0.0069,0.0116,0.0081,0.0164,0.0174,0.0184,0.0234,0.0249,0.007,0.007,0.0071,0.0071,0,-0.0221,-0.0237,-0.0258,-0.0241,-0.0241,-0.0257,-0.0216,-0.0227,-0.0223,-0.0179,-0.0136,-0.0083,-0.0015,-0.0008,0.0015,0.0097,0.0099,0.0137,0.0186,0.0187,0.0238,0.0256,0.0064,0.0066,0.0067,0.0068,0,0,-0.0287,-0.0293,-0.0296,-0.0293,-0.0276,-0.0276,-0.0276,-0.0237,-0.021,-0.0194,-0.0138,-0.0081,-0.0047,0.0001,0.0039,0.0122,0.0198,0.0138,0.0146,0.019,0.0394,0.0437,0.0461,0.0245,0.0249,0.0252,0.0385,0,-0.0323,-0.035,-0.0335,-0.0356,-0.0362,-0.033,-0.0317,-0.028,-0.0241,-0.0188,-0.01,-0.0043,-0.0041,-0.0015,0.0068,0.0173,0.0248,0.0155,0.0387,0.0393,0.0436,0.0486,0.0358,0.0471,0.0403,0.0406,0.0408,0,-0.0344,-0.0364,-0.0397,-0.0388,-0.0385,-0.0388,-0.0348,-0.033,-0.0232,-0.0199,-0.0116,-0.0049,0.0057,0.0064,0.0262,0.0194,0.0283,0.0365,0.0373,0.0468,0.0473,0.0471,0.0508,0.0439,0.0437,0.0435,0.0433,0,-0.037,-0.0389,-0.0423,-0.0421,-0.0413,-0.0414,-0.0405,-0.0332,-0.03,-0.0197,-0.0153,-0.0016,0.0056,0.02,0.0327,0.0304,0.0551,0.0559,0.0684,0.0685,0.0656,0.065,0.0727,0.0727,0.0726,0.0726,0.0726,0,-0.0385,-0.0402,-0.044,-0.0452,-0.047,-0.0448,-0.043,-0.0394,-0.0317,-0.0251,-0.0162,-0.0069,0.0097,0.0245,0.0356,0.057,0.0584,0.0708,0.075,0.0616,0.0605,0.065,0.0639,0.0731,0.073,0.0729,0.0728,0,-0.0387,-0.0415,-0.0448,-0.0475,-0.0481,-0.0492,-0.0473,-0.0447,-0.0377,-0.0287,-0.0258,-0.0091,0.0093,0.0249,0.0495,0.0619,0.0811,0.0879,0.0676,0.0695,0.0855,0.0838,0.106,0.1063,0.1066,0.1068,0.107,0,-0.0385,-0.0408,-0.0473,-0.0504,-0.052,-0.0534,-0.0536,-0.0489,-0.0454,-0.0283,-0.0235,-0.0045,0.0122,0.0468,0.0646,0.0864,0.0875,0.0934,0.0907,0.0885,0.0903,0.0881,0.0861,0.0798,0.0797,0.0797,0.0796,0,-0.0374,-0.0408,-0.0452,-0.0532,-0.0564,-0.0585,-0.0582,-0.0556,-0.0467,-0.0359,-0.0168,-0.0008,0.0271,0.0482,0.0739,0.0857,0.0888,0.0941,0.1011,0.0744,0.0653,0.0665,0.0651,0.0793,0.0793,0.0794,0.0794,0.0794,-0.0362,-0.0408,-0.0485,-0.0555,-0.0601,-0.0625,-0.0632,-0.0574,-0.0484,-0.0322,-0.0166,0.0066,0.0245,0.0587,0.0725,0.0858,0.0933,0.0978,0.0972,0.0969,0.0926,0.0847,0.1011,0.1013,0.1014,0.1015,0.1016,0,-0.034,-0.0418,-0.0497,-0.0594,-0.0659,-0.0671,-0.0657,-0.0626,-0.0501,-0.0322,-0.015,0.004,0.028,0.0462,0.0665,0.0849,0.0771,0.086,0.0707,0.0712,0.0716,0.0653,0.067,0.0669,0.0668,0.0668,0,0,-0.0336,-0.0423,-0.0492,-0.0623,-0.0694,-0.0753,-0.0746,-0.0642,-0.0516,-0.0325,-0.0165,0.001,0.03,0.0351,0.0494,0.0596,0.0607,0.0582,0.0847,0.0652,0.0652,0.0777,0.0688,0,0,0,0,0]}],[{"header":{"parameterUnit":"m.s-1","parameterCategory":2,"la1":30.2991,"la2":30.254,"lo1":-89.0895,"lo2":-89.0444,"dy":0.0017,"dx":0.0017,"nx":28,"ny":28,"refTime":"2024-08-11T03:00:00:Z","depth":"4","parameterNumber":2,"parameterNumberName":"U-component_of_CURRENTS"},"data":[0,0,0,0,0,0,0,0,0,0,0,0,0,0,0,0,0,0,0,0,0,0,0,0,0,0,0,0,0,0,0,0,0,0,0,0,0,0,0,0,0,0,0,0,0,0,0,0,0,0,0,0,0,0,0,0,0,0,-0.0976,-0.0977,0,-0.104,-0.104,-0.1041,-0.1066,-0.1066,-0.1066,-0.1066,-0.1103,-0.1104,-0.1105,0,0,0,0,0,0,0,0,0,0,0,0,0,-0.0914,-0.0915,-0.0976,-0.0977,-0.0978,-0.104,-0.104,-0.1041,-0.1066,-0.1066,-0.1066,-0.1066,-0.1103,-0.1104,-0.1105,0,0,0,0,0,0,0,0,0,0,0,0,0,-0.0955,-0.0915,-0.0976,-0.0999,-0.1002,-0.1039,-0.104,-0.1041,-0.1066,-0.1066,-0.1066,-0.1066,-0.1102,-0.1104,-0.1106,-0.1117,0,0,-0.111,-0.1111,0,0,0,0,0,0,0,0,-0.0952,-0.0957,-0.0995,-0.0997,-0.1001,-0.1046,-0.1032,-0.1066,-0.1066,-0.104,-0.1066,-0.1066,-0.1082,-0.1086,-0.1097,-0.1119,-0.112,-0.1111,-0.1111,-0.1112,-0.1113,0,0,0,0,0,0,0,-0.0949,-0.0954,-0.1,-0.0996,-0.0999,-0.1019,-0.1024,-0.1039,-0.106,-0.1043,-0.1045,-0.1054,-0.1084,-0.1095,-0.1098,-0.1121,-0.111,-0.1112,-0.1113,-0.1113,-0.1239,-0.1241,0,0,0,0,0,0,-0.0942,-0.0952,-0.0998,-0.1002,-0.0977,-0.102,-0.1025,-0.103,-0.106,-0.1065,-0.1054,-0.1055,-0.1092,-0.1096,-0.1099,-0.1177,-0.1112,-0.1114,-0.1115,-0.1237,-0.1239,-0.1242,0,0,0,0,0,0,-0.094,-0.0945,-0.0996,-0.098,-0.0987,-0.1021,-0.1026,-0.1032,-0.1063,-0.1069,-0.1073,-0.1081,-0.1092,-0.1097,-0.1138,-0.1176,-0.1114,-0.1116,-0.1234,-0.1237,-0.1241,-0.1293,0,0,0,0,0,0,-0.0938,-0.0944,-0.0955,-0.0979,-0.0988,-0.1028,-0.1027,-0.1033,-0.1068,-0.107,-0.1094,-0.1096,-0.1093,-0.1136,-0.114,-0.1177,-0.1117,-0.1231,-0.1235,-0.124,-0.1288,-0.1298,-0.1306,0,0,0,0,0,-0.0936,-0.0942,-0.0955,-0.0962,-0.0998,-0.1029,-0.1036,-0.1058,-0.1069,-0.1086,-0.1111,-0.1097,-0.1168,-0.1139,-0.1143,-0.1182,-0.1229,-0.1234,-0.1239,-0.1284,-0.1296,-0.1306,0,0,0,0,0,0,-0.0918,-0.0946,-0.0961,-0.0976,-0.1008,-0.1034,-0.1047,-0.1073,-0.1107,-0.1113,-0.1121,-0.1125,-0.1183,-0.1178,-0.1146,-0.1235,-0.1199,-0.1205,-0.1231,-0.1242,-0.1251,-0.1264,-0.1118,0,0,0,0,0,-0.0921,-0.0937,-0.0967,-0.0985,-0.0993,-0.1028,-0.1048,-0.1071,-0.1099,-0.1115,-0.1133,-0.1162,-0.1206,-0.1219,-0.1248,-0.1285,-0.1261,-0.1317,-0.1326,-0.1334,-0.135,-0.1343,-0.1352,-0.126,-0.126,-0.1259,0,0,-0.0922,-0.0939,-0.0951,-0.0984,-0.1002,-0.1021,-0.1039,-0.1072,-0.1102,-0.1113,-0.1154,-0.1197,-0.1228,-0.128,-0.1304,-0.1277,-0.1345,-0.134,-0.1346,-0.1359,-0.135,-0.1358,-0.1366,-0.1263,-0.1263,-0.1262,0,0,-0.0925,-0.0942,-0.0954,-0.0981,-0.1019,-0.1032,-0.1048,-0.1088,-0.1116,-0.117,-0.1198,-0.1263,-0.1305,-0.1342,-0.1366,-0.1442,-0.14,-0.1459,-0.1503,-0.1496,-0.1503,-0.1508,-0.1467,-0.1469,-0.1453,-0.1453,-0.1453,0,-0.093,-0.0944,-0.0966,-0.0985,-0.1007,-0.1037,-0.1059,-0.1089,-0.1146,-0.1181,-0.1187,-0.1301,-0.1336,-0.141,-0.1462,-0.1461,-0.144,-0.1454,-0.1504,-0.151,-0.1514,-0.1471,-0.1472,-0.1456,-0.1455,-0.1455,-0.1455,0,-0.0927,-0.0959,-0.0964,-0.0993,-0.1021,-0.1045,-0.1084,-0.1095,-0.1134,-0.1203,-0.1296,-0.1351,-0.1424,-0.1455,-0.1495,-0.1567,-0.1534,-0.1519,-0.1468,-0.1526,-0.1477,-0.1478,-0.146,-0.1459,-0.1458,-0.1457,0,0,-0.0899,-0.0952,-0.0959,-0.098,-0.1031,-0.1045,-0.1065,-0.1115,-0.1146,-0.1229,-0.1272,-0.1419,-0.1491,-0.1527,-0.1575,-0.1594,-0.1629,-0.1593,-0.1591,-0.1536,-0.1591,-0.1458,-0.1445,-0.162,-0.1621,-0.1622,-0.1534,0,-0.0896,-0.0919,-0.0956,-0.0992,-0.1008,-0.1032,-0.1064,-0.1124,-0.1176,-0.1218,-0.1315,-0.1416,-0.1506,-0.1559,-0.16,-0.1648,-0.1637,-0.1653,-0.1558,-0.1555,-0.1417,-0.1444,-0.1625,-0.1533,-0.1533,-0.1533,-0.1533,0,-0.0887,-0.0903,-0.0933,-0.0994,-0.1003,-0.1032,-0.1052,-0.1101,-0.1179,-0.1238,-0.134,-0.1419,-0.1541,-0.1553,-0.165,-0.166,-0.1642,-0.1639,-0.1634,-0.1496,-0.1424,-0.1471,-0.1533,-0.1533,-0.1533,-0.1533,-0.1533,0,-0.084,-0.0895,-0.0912,-0.0933,-0.0997,-0.1005,-0.1039,-0.1122,-0.1169,-0.1265,-0.1295,-0.1447,-0.1508,-0.1548,-0.1605,-0.1639,-0.161,-0.1633,-0.1465,-0.1453,-0.1574,-0.1569,-0.1614,-0.1614,-0.1615,-0.1615,-0.1615,0,-0.0816,-0.0836,-0.0892,-0.0901,-0.0933,-0.1004,-0.104,-0.1094,-0.1167,-0.1212,-0.1344,-0.135,-0.1516,-0.1519,-0.1558,-0.1516,-0.1574,-0.1476,-0.1429,-0.1596,-0.1595,-0.1571,-0.1568,-0.1611,-0.1612,-0.1613,-0.1613,0,-0.0769,-0.0809,-0.0834,-0.089,-0.0922,-0.0947,-0.1025,-0.1037,-0.1148,-0.1161,-0.1199,-0.1317,-0.1358,-0.1417,-0.1451,-0.144,-0.1406,-0.1333,-0.1473,-0.1434,-0.1266,-0.1267,-0.1193,-0.1187,-0.1183,-0.1179,-0.1176,0,-0.0741,-0.0754,-0.0813,-0.0814,-0.0842,-0.0883,-0.0907,-0.1027,-0.1039,-0.1102,-0.1087,-0.1145,-0.1192,-0.1146,-0.1236,-0.1237,-0.1218,-0.1184,-0.1294,-0.1265,-0.1227,-0.1234,-0.124,-0.1169,-0.1168,-0.1167,-0.1165,0,-0.0688,-0.0717,-0.0727,-0.0739,-0.076,-0.076,-0.0801,-0.0812,-0.0902,-0.0981,-0.0971,-0.0984,-0.0974,-0.106,-0.1038,-0.104,-0.1235,-0.1139,-0.1151,-0.1253,-0.1235,-0.1203,-0.1215,-0.115,-0.1152,-0.1154,-0.1154,0,-0.0648,-0.0636,-0.0654,-0.0655,-0.0667,-0.0636,-0.0666,-0.067,-0.0726,-0.0822,-0.0787,-0.0838,-0.0925,-0.0942,-0.0917,-0.0928,-0.0961,-0.097,-0.0992,-0.101,-0.0999,-0.0952,-0.0735,0,0,0,0,0,-0.0595,-0.057,-0.0558,-0.0543,-0.0535,-0.0543,-0.059,-0.0618,-0.0694,-0.0664,-0.0743,-0.0723,-0.0742,-0.079,-0.0775,-0.0838,-0.0955,-0.0815,-0.0974,-0.1064,-0.1082,-0.1091,0,0,0,0,0,0,-0.0556,-0.0548,-0.0536,-0.0452,-0.0405,-0.0392,-0.0418,-0.046,-0.0476,-0.056,-0.06,-0.0657,-0.0716,-0.073,-0.0748,-0.0759,-0.0842,-0.0864,-0.0862,-0.1054,-0.107,-0.1085,-0.11,0,0,0,0,0]},{"header":{"parameterUnit":"m.s-1","parameterCategory":2,"la1":30.2991,"la2":30.254,"lo1":-89.0895,"lo2":-89.0444,"dy":0.0017,"dx":0.0017,"nx":28,"ny":28,"refTime":"2024-08-11T03:00:00:Z","depth":"4","parameterNumber":3,"parameterNumberName":"V-component_of_CURRENTS"},"data":[0,0,0,0,0,0,0,0,0,0,0,0,0,0,0,0,0,0,0,0,0,0,0,0,0,0,0,0,0,0,0,0,0,0,0,0,0,0,0,0,0,0,0,0,0,0,0,0,0,0,0,0,0,0,0,0,0,0,-0.011,-0.0109,0,-0.0104,-0.0104,-0.0104,-0.0064,-0.0062,-0.0061,-0.006,-0.006,-0.0061,-0.0062,0,0,0,0,0,0,0,0,0,0,0,0,0,-0.0085,-0.0086,-0.011,-0.0109,-0.0109,-0.0104,-0.0104,-0.0104,-0.0064,-0.0062,-0.0061,-0.0059,-0.0059,-0.0061,-0.0062,0,0,0,0,0,0,0,0,0,0,0,0,0,-0.0093,-0.0087,-0.011,-0.0086,-0.0083,-0.0104,-0.0104,-0.0104,-0.0064,-0.0062,-0.006,-0.0058,-0.0059,-0.0061,-0.0063,-0.0113,0,0,-0.0068,-0.0069,0,0,0,0,0,0,0,0,-0.0092,-0.0094,-0.009,-0.0087,-0.0085,-0.0079,-0.0095,-0.0106,-0.0065,-0.0075,-0.006,-0.0057,-0.0066,-0.0067,-0.0075,-0.0113,-0.0113,-0.0068,-0.0069,-0.007,-0.0071,0,0,0,0,0,0,0,-0.0092,-0.0094,-0.0111,-0.0089,-0.0086,-0.0074,-0.0074,-0.0097,-0.0084,-0.0074,-0.007,-0.0065,-0.0065,-0.0074,-0.0075,-0.0113,-0.0068,-0.007,-0.0071,-0.0072,-0.0182,-0.0183,0,0,0,0,0,0,-0.0088,-0.0094,-0.0111,-0.011,-0.008,-0.0076,-0.0076,-0.0086,-0.0084,-0.0081,-0.0066,-0.0063,-0.0071,-0.0073,-0.0075,-0.0137,-0.007,-0.0072,-0.0073,-0.018,-0.0182,-0.0184,0,0,0,0,0,0,-0.0088,-0.0091,-0.0111,-0.0098,-0.0099,-0.0078,-0.009,-0.0087,-0.0088,-0.0077,-0.0074,-0.0069,-0.007,-0.0072,-0.0101,-0.0136,-0.0073,-0.0074,-0.0178,-0.018,-0.0183,-0.026,0,0,0,0,0,0,-0.0088,-0.0091,-0.01,-0.0098,-0.01,-0.0132,-0.0092,-0.0088,-0.0086,-0.0081,-0.008,-0.0078,-0.0069,-0.0099,-0.0103,-0.0138,-0.0076,-0.0175,-0.0179,-0.0182,-0.0255,-0.0265,-0.0273,0,0,0,0,0,-0.0087,-0.0112,-0.0102,-0.0103,-0.0113,-0.0133,-0.0134,-0.0113,-0.0088,-0.0105,-0.01,-0.0077,-0.0123,-0.0102,-0.0106,-0.0142,-0.0174,-0.0178,-0.0182,-0.0251,-0.0263,-0.0273,0,0,0,0,0,0,-0.0112,-0.011,-0.0098,-0.0122,-0.0128,-0.0125,-0.0135,-0.012,-0.013,-0.0124,-0.0106,-0.0106,-0.014,-0.0137,-0.0114,-0.0184,-0.0144,-0.0149,-0.0194,-0.0206,-0.0215,-0.0211,-0.0077,0,0,0,0,0,-0.0122,-0.0139,-0.0133,-0.0157,-0.0157,-0.0147,-0.0151,-0.0142,-0.0146,-0.0147,-0.0146,-0.015,-0.0165,-0.0179,-0.0189,-0.024,-0.0198,-0.0264,-0.0273,-0.0281,-0.0282,-0.0254,-0.026,-0.0197,-0.0197,-0.0197,0,0,-0.0137,-0.0139,-0.0148,-0.0163,-0.0163,-0.0195,-0.0146,-0.0162,-0.0192,-0.0149,-0.0192,-0.0181,-0.0183,-0.0228,-0.0245,-0.023,-0.0277,-0.0286,-0.0293,-0.0289,-0.0259,-0.0264,-0.0269,-0.02,-0.02,-0.0199,0,0,-0.0184,-0.0181,-0.0208,-0.022,-0.0225,-0.023,-0.0235,-0.0239,-0.0239,-0.0284,-0.025,-0.0274,-0.0299,-0.0314,-0.0322,-0.0397,-0.0319,-0.0383,-0.0438,-0.0411,-0.0415,-0.0418,-0.0364,-0.0362,-0.0397,-0.0397,-0.0397,0,-0.0196,-0.0234,-0.0221,-0.0255,-0.0271,-0.025,-0.0291,-0.0305,-0.032,-0.033,-0.0309,-0.034,-0.0353,-0.0396,-0.0417,-0.0422,-0.0358,-0.0395,-0.0421,-0.0423,-0.0425,-0.0368,-0.0365,-0.0401,-0.0401,-0.04,-0.04,0,-0.0263,-0.0293,-0.0314,-0.0352,-0.0375,-0.0406,-0.0419,-0.0445,-0.0443,-0.0447,-0.0474,-0.0479,-0.0493,-0.0503,-0.0486,-0.0507,-0.0439,-0.0426,-0.0388,-0.0436,-0.0373,-0.0368,-0.0407,-0.0406,-0.0404,-0.0403,0,0,-0.0281,-0.0344,-0.0351,-0.0383,-0.0424,-0.0452,-0.0513,-0.0552,-0.0575,-0.059,-0.0616,-0.0652,-0.0615,-0.0621,-0.0592,-0.0576,-0.0551,-0.0498,-0.0495,-0.0435,-0.0438,-0.0333,-0.0317,-0.0509,-0.0508,-0.0508,-0.0384,0,-0.0328,-0.0409,-0.0431,-0.0518,-0.0557,-0.0572,-0.0627,-0.0662,-0.0674,-0.0699,-0.0693,-0.0708,-0.0669,-0.0662,-0.0644,-0.0561,-0.054,-0.0583,-0.0408,-0.0404,-0.0297,-0.031,-0.0508,-0.038,-0.0378,-0.0378,-0.0377,0,-0.0378,-0.0427,-0.0514,-0.059,-0.0606,-0.0663,-0.0728,-0.0772,-0.0803,-0.0799,-0.0801,-0.0772,-0.0763,-0.0722,-0.0613,-0.0617,-0.0539,-0.0477,-0.047,-0.0342,-0.029,-0.0325,-0.0367,-0.0367,-0.0368,-0.0369,-0.0369,0,-0.0388,-0.0482,-0.0553,-0.0582,-0.0668,-0.0714,-0.0761,-0.0806,-0.0827,-0.0853,-0.085,-0.0823,-0.0797,-0.0703,-0.0572,-0.0578,-0.0416,-0.0426,-0.0264,-0.0254,-0.035,-0.0348,-0.0364,-0.0364,-0.0364,-0.0365,-0.0365,0,-0.042,-0.048,-0.0567,-0.0606,-0.0691,-0.0742,-0.081,-0.0846,-0.0876,-0.0879,-0.0888,-0.085,-0.0779,-0.0677,-0.0569,-0.0369,-0.0415,-0.0261,-0.0217,-0.0385,-0.0389,-0.0345,-0.0345,-0.036,-0.0361,-0.0362,-0.0363,0,-0.0425,-0.0479,-0.0565,-0.0664,-0.0699,-0.0761,-0.0837,-0.087,-0.0893,-0.0894,-0.0898,-0.0857,-0.0707,-0.0606,-0.0445,-0.0351,-0.0196,-0.0123,-0.0278,-0.0247,-0.0057,-0.0062,0.0055,0.006,0.0064,0.0067,0.007,0,-0.0439,-0.048,-0.0595,-0.064,-0.069,-0.0776,-0.0823,-0.0876,-0.0883,-0.0861,-0.0841,-0.0743,-0.0683,-0.0383,-0.0281,-0.0071,-0.0049,0.002,-0.0058,-0.0046,-0.0015,-0.0027,-0.0037,0.0076,0.0077,0.0078,0.0079,0,-0.0458,-0.0495,-0.0559,-0.0641,-0.0708,-0.0777,-0.0832,-0.0829,-0.085,-0.087,-0.0755,-0.0642,-0.0471,-0.0311,-0.0144,-0.0,-0.0034,0.0061,0.0052,-0.0021,-0.0019,0.0005,-0.001,0.0093,0.0091,0.0089,0.0089,0,-0.0463,-0.0502,-0.0568,-0.0636,-0.0713,-0.075,-0.0788,-0.0773,-0.0783,-0.0746,-0.0685,-0.0553,-0.0491,-0.0266,-0.0098,0.0045,0.0059,0.0075,0.0065,0.0051,0.0009,0.0007,0.0175,0,0,0,0,0,-0.0468,-0.0496,-0.0555,-0.0623,-0.0689,-0.0732,-0.0778,-0.0797,-0.0796,-0.0702,-0.0694,-0.0528,-0.0292,-0.0209,-0.0043,-0.0036,0.0076,0.0163,0.0087,0.0169,0.0153,0.0112,0,0,0,0,0,0,-0.0472,-0.0525,-0.0544,-0.059,-0.0627,-0.0695,-0.0726,-0.0729,-0.0669,-0.065,-0.053,-0.0478,-0.026,-0.0382,-0.0037,0.0004,-0.0018,0.026,0.0264,0.0178,0.0163,0.0151,0.0103,0,0,0,0,0]}]]